Tracking 35237 objects as of 6-Sep-2026
HD Live streaming from Space Station
objects crossing your sky now

FLOCK 4V 2


FLOCK 4V 2 is no longer on orbit
FLOCK 4V 2 is classified as:


NORAD ID: 46321
Int'l Code: 2020-061BB
Launch date: September 3, 2020
Source: United States (US)
Launch site: FRENCH GUIANA (FRGUI)
Decay date: 2024-02-14
Your satellite tracking list
Your tracking list is empty




NASA's NSSDC Master Catalog

Two Line Element Set (TLE):
1 46321U 20061BB  24041.70048860  .10390662  24353-5  11044-2 0  9990
2 46321  97.2974 124.2531 0009498 291.7831  68.2456 16.37514218190879
Source of the keplerian elements: AFSPC